Decatur, IL

12:32 AM CST on February 09, 2016 (GMT -0600)
Decatur

Weather History for KDEC - October, 2012

Change the Weather History Date:

Tuesday, October 30, 2012

  Actual Average Record
Temperature  
Mean Temperature 44 °F 50 °F  
Max Temperature 51 °F 60 °F - ()
Min Temperature 36 °F 40 °F - ()
Degree Days  
Heating Degree Days 21 15  
Month to date heating degree days 357 330  
Since 1 July heating degree days 437 403  
Cooling Degree Days 0 0  
Month to date cooling degree days 6 14  
Year to date cooling degree days 1427 1043  
Moisture  
Dew Point 26 °F    
Average Humidity 53    
Maximum Humidity 70    
Minimum Humidity 36    
Precipitation  
Precipitation 0.00 in 0.11 in - ()
Month to date precipitation 3.58 3.17  
Year to date precipitation 22.70 32.37  
Sea Level Pressure  
Sea Level Pressure 29.91 in    
Wind  
Wind Speed 17 mph (NNW)    
Max Wind Speed 26 mph    
Max Gust Speed 46 mph    
Visibility 10 miles    
Events      
T = Trace of Precipitation, MM = Missing Value Source: NWS Daily Summary

Daily Weather History Graph

Daily Weather History Graph

Search for Another Location

Airport or City:

Trip Planner

Search our weather history database for the weather conditions in past years. The results will help you decide how hot, cold, wet, or windy it might be!

Date:

Astronomy

Oct. 30, 2012 Rise Set
Actual Time 7:22 AM CDT 5:55 PM CDT
Civil Twilight 6:54 AM CDT 6:23 PM CDT
Nautical Twilight 6:22 AM CDT 6:54 PM CDT
Astronomical Twilight 5:51 AM CDT 7:26 PM CDT
Moon 6:24 PM CDT (10/30) 8:08 AM CDT (10/30)
Length of Visible Light 11h 28m
Length of Day
10h 32m
Full, 99% of the Moon is Illuminated
Oct 30
Full
Nov 6
Last Quarter
Nov 13
New
Nov 20
First Quarter
Nov 28
Full

Hourly Weather History & Observations

Time (CDT) Temp. Windchill Dew Point Humidity Pressure Visibility Wind Dir Wind Speed Gust Speed Precip Events Conditions
12:54 AM 41.0 °F 33.5 °F 28.0 °F 60% 30.06 in 10.0 mi NNW 13.8 mph 23.0 mph N/A   Clear
1:54 AM 39.9 °F - 28.0 °F 63% 30.04 in 10.0 mi North - - N/A   Clear
2:54 AM 39.0 °F 30.6 °F 28.0 °F 65% 30.02 in 10.0 mi NW 15.0 mph - N/A   Clear
3:54 AM 37.9 °F 29.2 °F 28.0 °F 68% 30.00 in 10.0 mi NNW 15.0 mph 21.9 mph N/A   Clear
4:54 AM 37.0 °F 28.1 °F 28.0 °F 70% 29.99 in 10.0 mi NW 15.0 mph 24.2 mph N/A   Clear
5:54 AM 37.0 °F 28.1 °F 28.0 °F 70% 29.97 in 10.0 mi NW 15.0 mph - N/A   Clear
6:54 AM 37.0 °F 27.7 °F 27.0 °F 67% 29.95 in 10.0 mi NNW 16.1 mph 24.2 mph N/A   Clear
7:54 AM 37.0 °F 27.4 °F 27.0 °F 67% 29.95 in 10.0 mi NW 17.3 mph 26.5 mph N/A   Clear
8:54 AM 37.9 °F 28.9 °F 28.0 °F 68% 29.93 in 10.0 mi NNW 16.1 mph 24.2 mph N/A   Clear
9:54 AM 39.9 °F 30.0 °F 28.0 °F 63% 29.92 in 10.0 mi NNW 21.9 mph 32.2 mph N/A   Clear
10:54 AM 42.1 °F 32.1 °F 28.0 °F 58% 29.90 in 10.0 mi NNW 25.3 mph 34.5 mph N/A   Clear
11:54 AM 45.0 °F 36.6 °F 28.0 °F 52% 29.88 in 10.0 mi NW 21.9 mph 33.4 mph N/A   Clear
12:54 PM 46.9 °F - 27.0 °F 46% 29.86 in 10.0 mi NW 24.2 mph 31.1 mph N/A   Clear
1:54 PM 48.9 °F - 26.1 °F 41% 29.84 in 10.0 mi NNW 16.1 mph 26.5 mph N/A   Clear
2:54 PM 50.0 °F - 24.1 °F 36% 29.84 in 10.0 mi NW 24.2 mph 31.1 mph N/A   Clear
3:54 PM 50.0 °F - 26.1 °F 39% 29.83 in 10.0 mi NNW 21.9 mph 28.8 mph N/A   Clear
4:54 PM 50.0 °F - 24.1 °F 36% 29.84 in 10.0 mi NNW 19.6 mph 28.8 mph N/A   Clear
5:54 PM 48.9 °F - 23.0 °F 36% 29.86 in 10.0 mi NNW 16.1 mph 25.3 mph N/A   Clear
6:54 PM 46.9 °F - 23.0 °F 39% 29.87 in 10.0 mi NNW 15.0 mph 23.0 mph N/A   Clear
7:54 PM 45.0 °F 38.5 °F 25.0 °F 46% 29.88 in 10.0 mi NNW 13.8 mph - N/A   Partly Cloudy
8:54 PM 45.0 °F 38.2 °F 26.1 °F 48% 29.88 in 10.0 mi North 15.0 mph - N/A   Overcast
9:54 PM 44.1 °F 39.0 °F 27.0 °F 51% 29.88 in 10.0 mi NNW 9.2 mph 19.6 mph N/A   Mostly Cloudy
10:54 PM 42.1 °F 34.5 °F 24.1 °F 49% 29.87 in 10.0 mi NNW 15.0 mph - N/A   Clear
11:54 PM 39.9 °F 32.5 °F 25.0 °F 55% 29.86 in 10.0 mi NW 12.7 mph - N/A   Clear